Flag for U.S.A. Weather past 2 weeks in Barnstable, Massachusetts, U.S.A.

Now
55 °F

Clear.


Feels Like: 55 °F
Forecast: 57 / 71 °F
Wind: No wind

Location: Barnstable Municipal-Boardman Airport

Current Time: May 29, 2015 at 7:05:30 AM

Latest Report: May 29, 2015 at 5:56 AM


Visibility: 10 mi

Pressure: 30.25 "Hg

Humidity: 96%

Dew point: 54 °F

Location of BarnstableLocation

Historic Weather in Barnstable — Graph

°F

Barnstable temperature yesterday

Maximum temperature yesterday: 68 °F (at 2:56 PM)
Minimum temperature yesterday: 60 °F (at 11:56 PM)
Average temperature yesterday: 65 °F

Past Weeks' High & Low Weather Summary

 TemperatureHumidityPressure
High75 °F (May 17, 10:56 AM)100% (May 17, 10:56 PM)30.33 "Hg (May 17, 10:56 PM)
Low41 °F (May 14, 5:56 AM)27% (May 22, 10:56 PM)29.64 "Hg (May 20, 12:56 AM)
Average59 °F73%30.12 "Hg
* Reported May 14 5:56 AM — May 29 5:56 AM, Barnstable, Weather by CustomWeather, © 2015

Note: Actual official high and low records may vary slightly from our data, if they occured in-between our weather recording intervals... More about our weather records

Advertising

Barnstable weather history for previous 24 hours

 ConditionsComfort  
Time TempWeatherWind HumidityBarometerVisibility
5:56 AM
Fri, May 29
55 °FClear.No wind96%30.25 "Hg10 mi
4:56 AM54 °FFog.No wind97%30.23 "Hg4 mi
3:56 AM57 °FFog.No wind96%30.22 "Hg5 mi
2:56 AM59 °FClear.No wind93%30.21 "Hg7 mi
1:56 AM61 °FPassing clouds.3 mph93%30.21 "Hg9 mi
12:56 AM60 °FLow clouds.6 mph96%30.21 "Hg7 mi
11:56 PM
Thu, May 28
60 °FLow clouds.8 mph93%30.20 "Hg9 mi
10:56 PM62 °FPartly cloudy.9 mph93%30.19 "Hg10 mi
9:56 PM63 °FPartly cloudy.8 mph90%30.20 "Hg10 mi
8:56 PM64 °FPassing clouds.22 mph87%30.16 "Hg10 mi
7:56 PM65 °FPartly sunny.21 mph85%30.15 "Hg10 mi
6:56 PM67 °FOvercast.24 mph85%30.15 "Hg10 mi
5:56 PM66 °FMostly cloudy.17 mph84%30.13 "Hg10 mi
4:56 PM67 °FOvercast.14 mph81%30.14 "Hg10 mi
3:56 PM67 °FOvercast.15 mph81%30.14 "Hg10 mi
2:56 PM68 °FMostly cloudy.16 mph78%30.15 "Hg10 mi
1:56 PM67 °FOvercast.14 mph81%30.17 "Hg10 mi
12:56 PM67 °FOvercast.18 mph81%30.17 "Hg10 mi
11:56 AM66 °FOvercast.15 mph81%30.18 "Hg10 mi
10:56 AM65 °FOvercast.14 mph85%30.20 "Hg9 mi
9:56 AM67 °FOvercast.15 mph81%30.20 "Hg10 mi
8:56 AM66 °FOvercast.16 mph84%30.19 "Hg10 mi
7:56 AM65 °FMostly cloudy.16 mph85%30.19 "Hg10 mi
Weather by CustomWeather, © 2015

See weather overviewHow to use our weather pages